H1 CPF 1 NER 2021 11 26 9 8301 glonass142 H2 2001801 9142 45358 2021 11 26 0 0 0 2021 11 29 23 45 0 900 1 1 0 0 0 H9 10 0 59544 0.00000 0 -15408878.717 20214607.860 -1991894.667 10 0 59544 900.00000 0 -15030561.275 19930288.641 -5173684.033 10 0 59544 1800.00000 0 -14485267.581 19282640.907 -8254784.132 10 0 59544 2700.00000 0 -13829527.651 18263176.567 -11175195.868 10 0 59544 3600.00000 0 -13121813.987 16876638.543 -13878031.292 10 0 59544 4500.00000 0 -12419912.817 15141012.904 -16310631.867 10 0 59544 5400.00000 0 -11778338.660 13086994.278 -18425603.703 10 0 59544 6300.00000 0 -11245902.668 10756925.774 -20181748.759 10 0 59544 7200.00000 0 -10863538.582 8203257.135 -21544873.167 10 0 59544 8100.00000 0 -10662479.041 5486585.200 -22488456.593 10 0 59544 9000.00000 0 -10662859.831 2673358.351 -22994169.490 10 0 59544 9900.00000 0 -10872811.355 -166659.128 -23052228.229 10 0 59544 10800.00000 0 -11288075.664 -2963057.028 -22661581.504 10 0 59544 11700.00000 0 -11892165.029 -5647472.263 -21829924.776 10 0 59544 12600.00000 0 -12657054.918 -8156192.869 -20573542.946 10 0 59544 13500.00000 0 -13544381.626 -10432564.937 -18916984.842 10 0 59544 14400.00000 0 -14507093.393 -12429102.896 -16892576.354 10 0 59544 15300.00000 0 -15491484.742 -14109216.132 -14539782.244 10 0 59544 16200.00000 0 -16439527.580 -15448481.316 -11904429.571 10 0 59544 17100.00000 0 -17291400.230 -16435408.993 -9037808.339 10 0 59544 18000.00000 0 -17988107.225 -17071674.232 -5995667.453 10 0 59544 18900.00000 0 -18474079.113 -17371803.819 -2837126.009 10 0 59544 19800.00000 0 -18699642.496 -17362335.209 376478.475 10 0 59544 20700.00000 0 -18623256.189 -17080484.571 3582782.011 10 0 59544 21600.00000 0 -18213419.457 -16572381.712 6719602.941 10 0 59544 22500.00000 0 -17450172.239 -15890947.574 9726144.050 10 0 59544 23400.00000 0 -16326124.555 -15093504.633 12544164.770 10 0 59544 24300.00000 0 -14846972.040 -14239221.307 15119101.255 10 0 59544 25200.00000 0 -13031476.020 -13386497.978 17401113.294 10 0 59544 26100.00000 0 -10910908.754 -12590404.203 19346038.687 10 0 59544 27000.00000 0 -8527986.506 -11900274.189 20916237.704 10 0 59544 27900.00000 0 -5935333.968 -11357560.640 22081312.452 10 0 59544 28800.00000 0 -3193542.847 -10994036.189 22818688.238 10 0 59544 29700.00000 0 -368903.714 -10830417.102 23114046.635 10 0 59544 30600.00000 0 2469096.500 -10875466.431 22961602.455 10 0 59544 31500.00000 0 5250409.293 -11125614.104 22364219.485 10 0 59544 32400.00000 0 7907084.320 -11565110.118 21333362.549 10 0 59544 33300.00000 0 10375845.421 -12166705.112 19888886.222 10 0 59544 34200.00000 0 12600477.394 -12892830.748 18058663.245 10 0 59544 35100.00000 0 14533925.449 -13697231.561 15878058.633 10 0 59544 36000.00000 0 16140020.688 -14526980.970 13389258.188 10 0 59544 36900.00000 0 17394759.948 -15324797.735 10640463.084 10 0 59544 37800.00000 0 18287086.544 -16031566.177 7684964.892 10 0 59544 38700.00000 0 18819139.049 -16588954.300 4580117.970 10 0 59544 39600.00000 0 19005957.254 -16942019.257 1386228.662 10 0 59544 40500.00000 0 18874657.383 -17041689.506 -1834617.316 10 0 59544 41400.00000 0 18463111.086 -16847017.665 -5019766.302 10 0 59544 42300.00000 0 17818183.888 -16327107.346 -8107222.638 10 0 59544 43200.00000 0 16993607.763 -15462630.786 -11036864.450 10 0 59544 44100.00000 0 16047578.209 -14246871.211 -13751624.521 10 0 59544 45000.00000 0 15040178.156 -12686244.110 -16198612.070 10 0 59544 45900.00000 0 14030738.502 -10800273.659 -18330152.583 10 0 59544 46800.00000 0 13075247.758 -8621023.797 -20104724.588 10 0 59544 47700.00000 0 12223921.157 -6192006.678 -21487774.378 10 0 59544 48600.00000 0 11519032.574 -3566613.435 -22452392.516 10 0 59544 49500.00000 0 10993101.269 -806132.355 -22979838.785 10 0 59544 50400.00000 0 10667510.110 2022562.904 -23059905.437 10 0 59544 51300.00000 0 10551613.443 4849558.704 -22691111.961 10 0 59544 52200.00000 0 10642371.770 7604574.389 -21880727.981 10 0 59544 53100.00000 0 10924528.000 10219651.398 -20644624.294 10 0 59544 54000.00000 0 11371316.950 12631746.811 -19006955.459 10 0 59544 54900.00000 0 11945677.226 14785123.699 -16999680.625 10 0 59544 55800.00000 0 12601913.340 16633439.298 -14661932.460 10 0 59544 56700.00000 0 13287736.953 18141444.964 -12039246.977 10 0 59544 57600.00000 0 13946600.197 19286228.277 -9182669.758 10 0 59544 58500.00000 0 14520221.798 20057946.917 -6147756.548 10 0 59544 59400.00000 0 14951198.762 20460025.487 -2993488.165 10 0 59544 60300.00000 0 15185592.979 20508808.958 218878.734 10 0 59544 61200.00000 0 15175383.353 20232689.197 3427002.202 10 0 59544 62100.00000 0 14880680.012 19670743.072 6568663.517 10 0 59544 63000.00000 0 14271607.329 18870940.909 9582970.183 10 0 59544 63900.00000 0 13329776.682 17888001.737 12411530.101 10 0 59544 64800.00000 0 12049287.102 16780986.212 14999574.684 10 0 59544 65700.00000 0 10437211.824 15610728.612 17297009.806 10 0 59544 66600.00000 0 8513550.148 14437215.537 19259375.084 10 0 59544 67500.00000 0 6310646.119 13317020.750 20848694.072 10 0 59544 68400.00000 0 3872097.405 12300902.822 22034200.004 10 0 59544 69300.00000 0 1251198.691 11431665.262 22792924.142 10 0 59544 70200.00000 0 -1491017.184 10742367.696 23110136.247 10 0 59544 71100.00000 0 -4288060.800 10254962.096 22979629.307 10 0 59544 72000.00000 0 -7070497.555 9979410.540 22403843.208 10 0 59544 72900.00000 0 -9768586.690 9913321.170 21393824.842 10 0 59544 73800.00000 0 -12314940.275 10042117.704 19969024.773 10 0 59544 74700.00000 0 -14647093.285 10339735.921 18156933.445 10 0 59544 75600.00000 0 -16709879.235 10769818.636 15992562.728 10 0 59544 76500.00000 0 -18457513.364 11287359.921 13517781.396 10 0 59544 77400.00000 0 -19855296.848 11840730.353 10780516.040 10 0 59544 78300.00000 0 -20880870.952 12373998.752 7833831.647 10 0 59544 79200.00000 0 -21524968.306 12829452.967 4734908.631 10 0 59544 80100.00000 0 -21791629.319 13150213.340 1543935.648 10 0 59544 81000.00000 0 -21697874.075 13282827.952 -1677060.533 10 0 59544 81900.00000 0 -21272843.075 13179738.987 -4865425.148 10 0 59544 82800.00000 0 -20556442.672 12801514.539 -7959101.310 10 0 59544 83700.00000 0 -19597552.344 12118749.759 -10897846.915 10 0 59544 84600.00000 0 -18451869.668 11113555.058 -13624417.858 10 0 59544 85500.00000 0 -17179484.504 9780566.559 -16085693.271 10 0 59545 0.00000 0 -15842285.624 8127434.396 -18233719.722 10 0 59545 900.00000 0 -14501309.314 6174765.621 -20026654.244 10 0 59545 1800.00000 0 -13214144.426 3955524.978 -21429584.283 10 0 59545 2700.00000 0 -12032501.568 1513914.586 -22415212.105 10 0 59545 3600.00000 0 -11000051.072 -1096219.202 -22964387.230 10 0 59545 4500.00000 0 -10150620.293 -3813386.429 -23066477.792 10 0 59545 5400.00000 0 -9506826.016 -6570778.204 -22719573.681 10 0 59545 6300.00000 0 -9079199.023 -9298818.605 -21930517.897 10 0 59545 7200.00000 0 -8865836.835 -11927837.341 -20714765.961 10 0 59545 8100.00000 0 -8852598.130 -14390751.959 -19096076.651 10 0 59545 9000.00000 0 -9013829.376 -16625647.997 -17106040.553 10 0 59545 9900.00000 0 -9313591.691 -18578149.914 -14783456.166 10 0 59545 10800.00000 0 -9707334.819 -20203484.561 -12173566.212 10 0 59545 11700.00000 0 -10143946.305 -21468152.042 -9327169.501 10 0 59545 12600.00000 0 -10568088.209 -22351135.310 -6299626.226 10 0 59545 13500.00000 0 -10922721.732 -22844599.408 -3149776.532 10 0 59545 14400.00000 0 -11151712.389 -22954052.746 61206.151 10 0 59545 15300.00000 0 -11202405.227 -22697965.342 3271004.246 10 0 59545 16200.00000 0 -11028061.097 -22106861.791 6417364.285 10 0 59545 17100.00000 0 -10590051.126 -21221928.530 9439300.771 10 0 59545 18000.00000 0 -9859716.934 -20093195.137 12278272.341 10 0 59545 18900.00000 0 -8819818.409 -18777366.853 14879307.875 10 0 59545 19800.00000 0 -7465508.142 -17335399.686 17192061.432 10 0 59545 20700.00000 0 -5804791.556 -15829919.758 19171776.403 10 0 59545 21600.00000 0 -3858453.017 -14322594.541 20780141.347 10 0 59545 22500.00000 0 -1659450.242 -12871565.176 21986022.097 10 0 59545 23400.00000 0 748198.772 -11529046.228 22766057.021 10 0 59545 24300.00000 0 3310991.440 -10339192.038 23105104.895 10 0 59545 25200.00000 0 5967915.099 -9336317.619 22996537.352 10 0 59545 26100.00000 0 8652740.218 -8543547.492 22442370.511 10 0 59545 27000.00000 0 11296539.070 -7971948.215 21453233.113 10 0 59545 27900.00000 0 13830327.291 -7620180.458 20048171.158 10 0 59545 28800.00000 0 16187720.209 -7474685.267 18254291.901 10 0 59545 29700.00000 0 18307494.940 -7510396.974 16106252.827 10 0 59545 30600.00000 0 20135952.591 -7691953.416 13645604.075 10 0 59545 31500.00000 0 21628982.486 -7975353.281 10919995.676 10 0 59545 32400.00000 0 22753742.333 -8309991.416 7982263.681 10 0 59545 33300.00000 0 23489883.670 -8640986.743 4889411.848 10 0 59545 34200.00000 0 23830270.593 -8911704.605 1701508.131 10 0 59545 35100.00000 0 23781160.860 -9066366.657 -1519482.887 10 0 59545 36000.00000 0 23361841.001 -9052637.131 -4710908.689 10 0 59545 36900.00000 0 22603730.175 -8824074.880 -7810654.499 10 0 59545 37800.00000 0 21548990.155 -8342345.856 -10758361.201 10 0 59545 38700.00000 0 20248699.958 -7579100.584 -13496610.786 10 0 59545 39600.00000 0 18760672.273 -6517435.344 -15972055.008 10 0 59545 40500.00000 0 17147004.249 -5152873.359 -18136464.251 10 0 59545 41400.00000 0 15471466.444 -3493822.734 -19947675.307 10 0 59545 42300.00000 0 13796840.649 -1561490.295 -21370418.849 10 0 59545 43200.00000 0 12182319.286 610746.459 -22377010.124 10 0 59545 44100.00000 0 10681076.180 2978483.971 -22947889.266 10 0 59545 45000.00000 0 9338111.071 5487906.533 -23072000.745 10 0 59545 45900.00000 0 8188458.244 8077802.450 -22747004.875 10 0 59545 46800.00000 0 7255833.991 10681898.453 -21979317.611 10 0 59545 47700.00000 0 6551778.863 13231414.954 -20783978.357 10 0 59545 48600.00000 0 6075329.484 15657735.563 -19184348.844 10 0 59545 49500.00000 0 5813232.275 17895079.617 -17211649.444 10 0 59545 50400.00000 0 5740688.439 19883066.303 -14904342.462 10 0 59545 51300.00000 0 5822597.135 21569063.766 -12307374.970 10 0 59545 52200.00000 0 6015242.748 22910225.674 -9471296.329 10 0 59545 53100.00000 0 6268353.570 23875130.926 -6451268.256 10 0 59545 54000.00000 0 6527443.618 24444959.024 -3305987.114 10 0 59545 54900.00000 0 6736337.605 24614153.237 -96539.874 10 0 59545 55800.00000 0 6839771.613 24390545.153 3114783.498 10 0 59545 56700.00000 0 6785959.098 23794936.979 6265697.954 10 0 59545 57600.00000 0 6529013.633 22860160.448 9295128.003 10 0 59545 58500.00000 0 6031126.119 21629653.080 12144385.784 10 0 59545 59400.00000 0 5264404.784 20155612.370 14758300.136 10 0 59545 60300.00000 0 4212300.573 18496805.775 17086275.498 10 0 59545 61200.00000 0 2870558.014 16716128.315 19083260.918 10 0 59545 62100.00000 0 1247651.436 14878009.585 20710611.543 10 0 59545 63000.00000 0 -635312.347 13045777.787 21936827.072 10 0 59545 63900.00000 0 -2745221.658 11279089.851 22738153.922 10 0 59545 64800.00000 0 -5038093.046 9631533.547 23099040.462 10 0 59545 65700.00000 0 -7460664.294 8148500.301 23012437.165 10 0 59545 66600.00000 0 -9952382.862 6865416.173 22479936.140 10 0 59545 67500.00000 0 -12447709.156 5806403.728 21511747.252 10 0 59545 68400.00000 0 -14878640.873 4983429.842 20126510.719 10 0 59545 69300.00000 0 -17177355.238 4395974.665 18350948.876 10 0 59545 70200.00000 0 -19278860.759 4031235.479 16219362.622 10 0 59545 71100.00000 0 -21123549.166 3864857.068 13772980.842 10 0 59545 72000.00000 0 -22659541.668 3862158.372 11059174.058 10 0 59545 72900.00000 0 -23844731.670 3979804.241 8130546.211 10 0 59545 73800.00000 0 -24648438.148 4167852.240 5043921.120 10 0 59545 74700.00000 0 -25052599.640 4372088.267 1859242.735 10 0 59545 75600.00000 0 -25052457.848 4536552.121 -1361589.776 10 0 59545 76500.00000 0 -24656701.074 4606145.593 -4555929.261 10 0 59545 77400.00000 0 -23887060.519 4529211.722 -7661606.005 10 0 59545 78300.00000 0 -22777375.689 4259974.614 -10618146.662 10 0 59545 79200.00000 0 -21372167.815 3760734.909 -13367961.884 10 0 59545 80100.00000 0 -19724781.225 3003726.119 -15857478.347 10 0 59545 81000.00000 0 -17895171.128 1972551.490 -18038192.051 10 0 59545 81900.00000 0 -15947431.269 663138.798 -19867621.530 10 0 59545 82800.00000 0 -13947166.046 -915828.809 -21310141.621 10 0 59545 83700.00000 0 -11958818.048 -2743025.554 -22337681.212 10 0 59545 84600.00000 0 -10043063.676 -4785135.828 -22930271.201 10 0 59545 85500.00000 0 -8254386.403 -6998020.442 -23076432.051 10 0 59546 0.00000 0 -6638929.469 -9328347.876 -22773393.714 10 0 59546 900.00000 0 -5232716.734 -11715623.865 -22027143.795 10 0 59546 1800.00000 0 -4060317.612 -14094531.376 -20852303.950 10 0 59546 2700.00000 0 -3134007.911 -16397487.410 -19271836.904 10 0 59546 3600.00000 0 -2453462.486 -18557306.671 -17316590.592 10 0 59546 4500.00000 0 -2005989.920 -20509862.026 -15024688.730 10 0 59546 5400.00000 0 -1767297.593 -22196630.493 -12440780.213 10 0 59546 6300.00000 0 -1702752.948 -23567018.644 -9615162.413 10 0 59546 7200.00000 0 -1769085.988 -24580370.563 -6602796.036 10 0 59546 8100.00000 0 -1916459.436 -25207575.070 -3462231.202 10 0 59546 9000.00000 0 -2090817.757 -25432205.863 -254466.070 10 0 59546 9900.00000 0 -2236414.698 -25251147.840 2958239.257 10 0 59546 10800.00000 0 -2298411.773 -24674684.633 6113570.287 10 0 59546 11700.00000 0 -2225437.463 -23726044.860 9150363.585 10 0 59546 12600.00000 0 -1971998.913 -22440427.217 12009786.735 10 0 59546 13500.00000 0 -1500644.425 -20863546.162 14636470.392 10 0 59546 14400.00000 0 -783785.727 -19049759.574 16979571.098 10 0 59546 15300.00000 0 194896.509 -17059856.923 18993745.125 10 0 59546 16200.00000 0 1439522.994 -14958600.075 20640015.583 10 0 59546 17100.00000 0 2941601.318 -12812118.665 21886517.169 10 0 59546 18000.00000 0 4680144.541 -10685267.677 22709105.229 10 0 59546 18900.00000 0 6622319.008 -8639055.975 23091818.331 10 0 59546 19800.00000 0 8724595.746 -6728251.400 23027186.106 10 0 59546 20700.00000 0 10934359.164 -4999260.757 22516376.685 10 0 59546 21600.00000 0 13191907.954 -3488371.593 21569180.822 10 0 59546 22500.00000 0 15432766.967 -2220427.928 20203832.432 10 0 59546 23400.00000 0 17590215.582 -1207994.421 18446668.143 10 0 59546 24300.00000 0 19597928.967 -451043.415 16331631.183 10 0 59546 25200.00000 0 21392623.364 62822.204 13899627.805 10 0 59546 26100.00000 0 22916595.685 357619.525 11197747.316 10 0 59546 27000.00000 0 24120051.549 467740.747 8278359.507 10 0 59546 27900.00000 0 24963124.039 436265.101 5198105.895 10 0 59546 28800.00000 0 25417497.765 312898.515 2016803.749 10 0 59546 29700.00000 0 25467569.062 151628.193 -1203716.091 10 0 59546 30600.00000 0 25111092.319 8191.680 -4400814.911 10 0 59546 31500.00000 0 24359284.000 -62531.680 -7512271.186 10 0 59546 32400.00000 0 23236378.888 -9095.270 -10477500.389 10 0 59546 33300.00000 0 21778656.348 214084.774 -13238744.732 10 0 59546 34200.00000 0 20032977.072 644548.575 -15742208.463 10 0 59546 35100.00000 0 18054891.644 1309954.648 -17939115.579 10 0 59546 36000.00000 0 15906400.524 2226664.605 -19786668.435 10 0 59546 36900.00000 0 13653459.896 3398811.825 -21248887.814 10 0 59546 37800.00000 0 11363338.468 4817894.840 -22297317.721 10 0 59546 38700.00000 0 9101936.414 6462913.765 -22911580.982 10 0 59546 39600.00000 0 6931179.116 8301044.933 -23079774.867 10 0 59546 40500.00000 0 4906594.804 10288826.058 -22798699.328 10 0 59546 41400.00000 0 3075177.088 12373802.632 -22073913.755 10 0 59546 42300.00000 0 1473621.229 14496566.661 -20919621.633 10 0 59546 43200.00000 0 127006.776 16593102.425 -19358385.812 10 0 59546 44100.00000 0 -952019.725 18597340.982 -17420680.470 10 0 59546 45000.00000 0 -1763529.456 20443816.327 -15144288.970 10 0 59546 45900.00000 0 -2320053.544 22070312.005 -12573559.866 10 0 59546 46800.00000 0 -2645795.785 23420387.390 -9758536.008 10 0 59546 47700.00000 0 -2775351.037 24445677.973 -6753974.265 10 0 59546 48600.00000 0 -2751985.311 25107873.701 -3618275.453 10 0 59546 49500.00000 0 -2625551.867 25380293.001 -412345.714 10 0 59546 50400.00000 0 -2450132.695 25248987.262 2801587.983 10 0 59546 51300.00000 0 -2281506.105 24713330.365 5961184.945 10 0 59546 52200.00000 0 -2174548.101 23786069.509 9005196.922 10 0 59546 53100.00000 0 -2180677.608 22492836.105 11874649.903 10 0 59546 54000.00000 0 -2345453.444 20871137.984 14513979.077 10 0 59546 54900.00000 0 -2706424.214 18968875.582 16872095.554 10 0 59546 55800.00000 0 -3291321.424 16842444.307 18903365.014 10 0 59546 56700.00000 0 -4116671.621 14554502.080 20568480.418 10 0 59546 57600.00000 0 -5186885.858 12171494.467 21835213.059 10 0 59546 58500.00000 0 -6493864.907 9761039.533 22679028.476 10 0 59546 59400.00000 0 -8017137.429 7389279.914 23083556.352 10 0 59546 60300.00000 0 -9724526.399 5118310.669 23040905.993 10 0 59546 61200.00000 0 -11573317.344 3003788.336 22551821.633 10 0 59546 62100.00000 0 -13511881.402 1092819.054 21625674.496 10 0 59546 63000.00000 0 -15481687.379 -577787.769 20280291.266 10 0 59546 63900.00000 0 -17419620.763 -1982828.510 18541621.383 10 0 59546 64800.00000 0 -19260514.658 -3109523.309 16443248.407 10 0 59546 65700.00000 0 -20939788.402 -3957809.221 14025753.471 10 0 59546 66600.00000 0 -22396084.478 -4540096.346 11335941.771 10 0 59546 67500.00000 0 -23573793.829 -4880497.114 8425945.729 10 0 59546 68400.00000 0 -24425363.632 -5013560.928 5352221.124 10 0 59546 69300.00000 0 -24913290.019 -4982567.328 2174455.013 10 0 59546 70200.00000 0 -25011711.004 -4837449.682 -1045593.650 10 0 59546 71100.00000 0 -24707531.261 -4632437.472 -4245298.067 10 0 59546 72000.00000 0 -24001029.961 -4423517.451 -7362388.267 10 0 59546 72900.00000 0 -22905924.630 -4265822.147 -10336171.732 10 0 59546 73800.00000 0 -21448887.090 -4211057.518 -13108725.201 10 0 59546 74700.00000 0 -19668530.904 -4305080.164 -15626033.193 10 0 59546 75600.00000 0 -17613912.277 -4585728.260 -17839050.038 10 0 59546 76500.00000 0 -15342607.087 -5080999.584 -19704663.824 10 0 59546 77400.00000 0 -12918444.841 -5807655.163 -21186542.690 10 0 59546 78300.00000 0 -10408994.729 -6770308.852 -22255846.593 10 0 59546 79200.00000 0 -7882909.335 -7961042.385 -22891790.518 10 0 59546 80100.00000 0 -5407237.444 -9359562.960 -23082048.182 10 0 59546 81000.00000 0 -3044818.335 -10933897.317 -22822988.650 10 0 59546 81900.00000 0 -851866.215 -12641593.549 -22119741.618 10 0 59546 82800.00000 0 1124154.738 -14431380.231 -20986090.536 10 0 59546 83700.00000 0 2846276.917 -16245213.234 -19444196.177 10 0 59546 84600.00000 0 4289325.685 -18020624.230 -17524156.468 10 0 59546 85500.00000 0 5440712.997 -19693272.072 -15263411.727 10 0 59547 0.00000 0 6300696.923 -21199589.793 -12706007.582 10 0 59547 900.00000 0 6882098.736 -22479416.730 -9901728.991 10 0 59547 1800.00000 0 7209490.543 -23478503.350 -6905126.295 10 0 59547 2700.00000 0 7317891.372 -24150786.440 -3774448.132 10 0 59547 3600.00000 0 7251027.430 -24460337.403 -570505.851 10 0 59547 4500.00000 0 7059232.130 -24382903.157 2644509.349 10 0 59547 5400.00000 0 6797075.807 -23906975.430 5808233.040 10 0 59547 6300.00000 0 6520826.190 -23034344.283 8859334.414 10 0 59547 7200.00000 0 6285847.376 -21780113.318 11738699.913 10 0 59547 8100.00000 0 6144047.310 -20172176.553 14390571.061 10 0 59547 9000.00000 0 6141481.282 -18250179.216 16763615.089 10 0 59547 9900.00000 0 6316212.109 -16064006.037 18811908.356 10 0 59547 10800.00000 0 6696516.653 -13671859.878 20495814.669 10 0 59547 11700.00000 0 7299513.773 -11138010.121 21782742.606 10 0 59547 12600.00000 0 8130271.161 -8530303.597 22647768.304 10 0 59547 13500.00000 0 9181428.749 -5917540.200 23074112.670 10 0 59547 14400.00000 0 10433355.045 -3366820.633 23053464.533 10 0 59547 15300.00000 0 11854830.888 -940974.832 22586143.818 10 0 59547 16200.00000 0 13404233.390 1303823.843 21681101.598 10 0 59547 17100.00000 0 15031172.271 3320161.069 20355756.483 10 0 59547 18000.00000 0 16678511.950 5071114.441 18635669.691 10 0 59547 18900.00000 0 18284696.577 6531545.644 16554063.877 10 0 59547 19800.00000 0 19786282.295 7688898.613 14151193.606 10 0 59547 20700.00000 0 21120571.793 8543470.610 11473578.287 10 0 59547 21600.00000 0 22228241.393 9108144.891 8573111.060 10 0 59547 22500.00000 0 23055850.511 9407596.126 5506059.803 10 0 59547 23400.00000 0 23558127.578 9477001.756 2331978.976 10 0 59547 24300.00000 0 23699935.310 9360313.609 -887446.926 10 0 59547 25200.00000 0 23457831.283 9108162.828 -4089605.723 10 0 59547 26100.00000 0 22821156.443 8775487.115 -7212181.725 10 0 59547 27000.00000 0 21792604.092 8418981.376 -10194377.109 10 0 59547 27900.00000 0 20388243.758 8094480.728 -12978105.684 10 0 59547 28800.00000 0 18636997.592 7854387.890 -15509134.586 10 0 59547 29700.00000 0 16579590.301 7745255.304 -17738150.606 10 0 59547 30600.00000 0 14267015.946 7805625.683 -19621729.461 10 0 59547 31500.00000 0 11758585.672 8064223.705 -21123188.303 10 0 59547 32400.00000 0 9119638.043 8538576.436 -22213304.494 10 0 59547 33300.00000 0 6419007.902 9234121.756 -22870886.413 10 0 59547 34200.00000 0 3726359.776 10143843.047 -23083185.204 10 0 59547 35100.00000 0 1109497.268 11248446.071 -22846139.727 10 0 59547 36000.00000 0 -1368239.362 12517070.774 -22164450.305 10 0 59547 36900.00000 0 -3650379.127 13908508.071 -21051480.267 10 0 59547 37800.00000 0 -5689430.082 15372870.287 -19528987.747 10 0 59547 38700.00000 0 -7448605.946 16853644.745 -17626693.407 10 0 59547 39600.00000 0 -8903098.796 18290043.813 -15381693.034 10 0 59547 40500.00000 0 -10040846.397 19619552.286 -12837726.948 10 0 59547 41400.00000 0 -10862764.065 20780564.695 -10044320.883 10 0 59547 42300.00000 0 -11382433.449 21715001.415 -7055815.656 10 0 59547 43200.00000 0 -11625263.578 22370793.483 -3930304.954 10 0 59547 44100.00000 0 -11627161.584 22704131.680 -728502.406 10 0 59547 45000.00000 0 -11432771.003 22681385.510 2487439.567 10 0 59547 45900.00000 0 -11093353.567 22280611.784 5655135.835 10 0 59547 46800.00000 0 -10664405.084 21492589.862 8713176.035 10 0 59547 47700.00000 0 -10203106.765 20321340.573 11602309.969 10 0 59547 48600.00000 0 -9765719.935 18784107.510 14266588.283 10 0 59547 49500.00000 0 -9405033.929 16910801.671 16654436.930 10 0 59547 50400.00000 0 -9167974.385 14742932.789 18719645.373 10 0 59547 51300.00000 0 -9093472.074 12332071.613 20422250.435 10 0 59547 52200.00000 0 -9210681.318 9737906.592 21729299.903 10 0 59547 53100.00000 0 -9537622.313 7025974.867 22615482.130 10 0 59547 54000.00000 0 -10080304.102 4265160.538 23063610.536 10 0 59547 54900.00000 0 -10832365.028 1525062.446 23064954.377 10 0 59547 55800.00000 0 -11775246.241 -1126660.911 22619409.763 10 0 59547 56700.00000 0 -12878891.877 -3626861.020 21735507.618 10 0 59547 57600.00000 0 -14102947.897 -5919278.517 20430257.987 10 0 59547 58500.00000 0 -15398410.853 -7956634.453 18728832.846 10 0 59547 59400.00000 0 -16709659.165 -9702347.827 16664092.395 10 0 59547 60300.00000 0 -17976783.287 -11131808.656 14275962.583 10 0 59547 61200.00000 0 -19138118.252 -12233153.812 11610674.525 10 0 59547 62100.00000 0 -20132873.130 -13007513.310 8719879.197 10 0 59547 63000.00000 0 -20903747.195 -13468716.683 5659653.396 10 0 59547 63900.00000 0 -21399422.480 -13642471.494 2489415.591 10 0 59547 64800.00000 0 -21576826.956 -13565048.451 -729227.695 10 0 59547 65700.00000 0 -21403071.723 -13281528.542 -3933682.457 10 0 59547 66600.00000 0 -20856978.904 -12843686.380 -7061590.833 10 0 59547 67500.00000 0 -19930134.054 -12307599.763 -10052053.157 10 0 59547 68400.00000 0 -18627416.894 -11731087.337 -12846823.635 10 0 59547 69300.00000 0 -16966986.338 -11171083.825 -15391455.134 10 0 59547 70200.00000 0 -14979719.007 -10681065.077 -17636369.717 10 0 59547 71100.00000 0 -12708123.697 -10308633.131 -19537833.137 10 0 59547 72000.00000 0 -10204776.639 -10093364.602 -21058813.497 10 0 59547 72900.00000 0 -7530342.698 -10065014.353 -22169706.928 10 0 59547 73800.00000 0 -4751265.077 -10242151.154 -22848915.948 10 0 59547 74700.00000 0 -1937220.185 -10631283.440 -23083269.248 10 0 59547 75600.00000 0 841556.132 -11226512.315 -22868275.008 10 0 59547 76500.00000 0 3516959.501 -12009726.470 -22208203.148 10 0 59547 77400.00000 0 6025613.021 -12951330.579 -21115995.379 10 0 59547 78300.00000 0 8311260.622 -14011476.117 -19613005.291 10 0 59547 79200.00000 0 10326858.790 -15141742.302 -17728574.022 10 0 59547 80100.00000 0 12036280.407 -16287195.799 -15499450.277 10 0 59547 81000.00000 0 13415561.050 -17388741.892 -12969066.491 10 0 59547 81900.00000 0 14453637.400 -18385667.592 -10186685.676 10 0 59547 82800.00000 0 15152548.774 -19218269.116 -7206436.131 10 0 59547 83700.00000 0 15527095.482 -19830452.732 -4086253.274 10 0 59547 84600.00000 0 15603970.519 -20172199.267 -886749.655 10 0 59547 85500.00000 0 15420403.081 -20201788.467 2329964.379 99